Asheville, NC

3:04 PM EDT on May 29, 2017 (GMT -0400)
Asheville Regional

Weather History for KAVL - March, 2014

Change the Weather History Date:

Thursday, March 13, 2014

  Actual Average Record
Temperature  
Mean Temperature 34 °F 46 °F  
Max Temperature 41 °F 58 °F 79 °F (1990)
Min Temperature 26 °F 35 °F 14 °F (1998)
Degree Days  
Heating Degree Days 32 19  
Month to date heating degree days 262  
Since 1 July heating degree days 3479  
Cooling Degree Days 0 0  
Month to date cooling degree days 0  
Year to date cooling degree days 0  
Moisture  
Dew Point 13 °F    
Average Humidity 50    
Maximum Humidity 84    
Minimum Humidity 13    
Precipitation  
Precipitation 0.00 in 0.12 in 2.92 in (1975)
Month to date precipitation 1.60  
Year to date precipitation 9.03  
Snow  
Snow 0.00 in 0.10 in 14.00 in (1993)
Month to date snowfall 0.9  
Since 1 July snowfall 8.2  
Snow Depth -    
Sea Level Pressure  
Sea Level Pressure 29.96 in    
Wind  
Wind Speed 17 mph (NNW)    
Max Wind Speed 45 mph    
Max Gust Speed 39 mph    
Visibility 8 miles    
Events Snow    
T = Trace of Precipitation, MM = Missing Value Source: NWS Daily Summary

Daily Weather History Graph

Daily Weather History Graph

Search for Another Location

Airport or City:

Trip Planner

Search our weather history database for the weather conditions in past years. The results will help you decide how hot, cold, wet, or windy it might be!

Date:

Astronomy

Mar. 13, 2014 Rise Set
Actual Time 7:43 AM EDT 7:36 PM EDT
Civil Twilight 7:18 AM EDT 8:01 PM EDT
Nautical Twilight 6:48 AM EDT 8:30 PM EDT
Astronomical Twilight 6:19 AM EDT 9:00 PM EDT
Moon 5:05 PM EDT (3/13) 5:45 AM EDT (3/13)
Length of Visible Light 12h 43m
Length of Day
11h 52m
Waxing Gibbous, 91% of the Moon is Illuminated
Mar 13
Waxing Gibbous
Mar 16
Full
Mar 23
Last Quarter
Mar 30
New
Apr 7
First Quarter

Hourly Weather History & Observations

Time (EDT) Temp. Windchill Dew Point Humidity Pressure Visibility Wind Dir Wind Speed Gust Speed Precip Events Conditions
12:07 AM 32.0 °F 21.2 °F 24.8 °F 75% 29.78 in 4.0 mi NW 16.1 mph 28.8 mph 0.00 in Snow Light Snow
12:41 AM 30.2 °F 18.5 °F 24.8 °F 80% 29.80 in 2.5 mi North 17.3 mph 25.3 mph 0.00 in Snow Light Snow
12:45 AM 30.2 °F 17.1 °F 24.8 °F 80% 29.79 in 4.0 mi North 21.9 mph 36.8 mph 0.00 in Snow Light Snow
12:54 AM 30.9 °F 18.7 °F 21.0 °F 67% 29.78 in 9.0 mi North 19.6 mph 28.8 mph 0.00 in   Mostly Cloudy
1:54 AM 30.9 °F 19.4 °F 15.1 °F 52% 29.78 in 10.0 mi North 17.3 mph 34.5 mph N/A   Mostly Cloudy
2:54 AM 30.0 °F 15.7 °F 14.0 °F 51% 29.77 in 10.0 mi NNW 26.5 mph 39.1 mph N/A   Mostly Cloudy
3:54 AM 28.9 °F 15.8 °F 14.0 °F 54% 29.78 in 10.0 mi NNW 20.7 mph 34.5 mph N/A   Overcast
4:54 AM 28.0 °F 16.1 °F 18.0 °F 66% 29.81 in 10.0 mi North 16.1 mph 31.1 mph 0.00 in Snow Light Snow
5:54 AM 28.9 °F 15.4 °F 16.0 °F 58% 29.85 in 10.0 mi NNW 21.9 mph 27.6 mph 0.00 in   Overcast
6:45 AM 26.6 °F 14.3 °F 21.2 °F 80% 29.86 in 3.0 mi North 16.1 mph 25.3 mph 0.00 in Snow Light Snow
6:51 AM 26.6 °F 13.4 °F 21.2 °F 80% 29.86 in 1.8 mi NNW 18.4 mph 25.3 mph 0.00 in Snow Light Snow
6:52 AM 26.1 °F 13.1 °F 21.9 °F 84% 29.88 in 1.8 mi NNW 17.3 mph 26.5 mph 0.00 in Snow Light Snow
7:02 AM 26.6 °F 15.2 °F 21.2 °F 80% 29.87 in 2.5 mi North 13.8 mph 25.3 mph 0.00 in Snow Light Snow
7:09 AM 26.6 °F 15.2 °F 21.2 °F 80% 29.87 in 3.0 mi North 13.8 mph 23.0 mph 0.00 in Snow Light Snow
7:47 AM 26.6 °F 15.7 °F 19.4 °F 74% 29.88 in 9.0 mi NW 12.7 mph 23.0 mph 0.00 in   Overcast
7:54 AM 27.0 °F 12.5 °F 18.0 °F 69% 29.91 in 10.0 mi NNW 23.0 mph 28.8 mph 0.00 in   Overcast
8:54 AM 28.9 °F 17.3 °F 18.0 °F 64% 29.96 in 10.0 mi North 16.1 mph 24.2 mph N/A   Overcast
9:54 AM 30.9 °F 19.1 °F 16.0 °F 54% 30.00 in 10.0 mi North 18.4 mph 32.2 mph N/A   Scattered Clouds
10:54 AM 32.0 °F 19.5 °F 12.9 °F 45% 30.04 in 10.0 mi North 21.9 mph 26.5 mph N/A   Partly Cloudy
11:54 AM - - - N/A% - - North - - N/A   Unknown
12:54 PM 37.0 °F 26.2 °F 7.0 °F 29% 30.04 in - North 21.9 mph 36.8 mph N/A   Unknown
1:54 PM 39.0 °F - 1.0 °F 20% 30.04 in - North - - N/A   Unknown
2:54 PM 39.0 °F 29.6 °F 3.0 °F 22% 30.05 in - North 18.4 mph 29.9 mph N/A   Unknown
3:54 PM 39.9 °F 30.8 °F 1.9 °F 20% 30.06 in - North 18.4 mph 31.1 mph N/A   Clear
4:54 PM 41.0 °F 32.5 °F 3.9 °F 21% 30.08 in 10.0 mi North 17.3 mph 23.0 mph N/A   Clear
5:54 PM 41.0 °F 33.5 °F 5.0 °F 23% 30.10 in 10.0 mi North 13.8 mph 18.4 mph N/A   Clear
6:54 PM 39.0 °F 31.8 °F 1.9 °F 21% 30.13 in 10.0 mi North 11.5 mph - N/A   Clear
7:10 PM 37.9 °F 30.5 °F 1.9 °F 22% 30.13 in 10.0 mi North 11.5 mph 18.4 mph N/A   Clear
7:54 PM 36.0 °F 31.1 °F 3.0 °F 25% 30.16 in 10.0 mi NNW 5.8 mph - N/A   Clear
8:54 PM 34.0 °F 28.8 °F 5.0 °F 30% 30.18 in - NNW 5.8 mph - N/A   Clear
9:54 PM 30.9 °F 26.2 °F 7.0 °F 37% 30.20 in 10.0 mi NNW 4.6 mph - N/A   Clear
10:54 PM 30.0 °F 25.2 °F 12.0 °F 47% 30.20 in - NW 4.6 mph - N/A   Clear
11:54 PM 30.0 °F - 10.9 °F 45% 30.21 in - Calm Calm - N/A   Clear